#timestamp,LO_Frequency,Hit,StdDev 
1560956415.7,286046998.9,N
1560956435.6,286046999.3,N
1560956455.4,286047000.3,N
1560956475.2,286047000.6,N
1560956495.1,286047000.5,N
1560956496.0,286047000.5,N
1560956515.8,286047002.0,N
1560956535.6,286047001.9,N
1560956555.5,286047001.5,N
1560956575.3,286046999.7,N
1560956595.1,286047002.6,N
1560956615.9,286047002.6,N
1560956635.7,286047003.8,N
1560956655.5,286047001.5,N
1560956675.4,286046999.7,N
1560956695.2,286047000.7,N
1560956715.0,286047000.6,N
1560956715.9,286047000.6,N
1560956735.8,286046998.3,N
1560956755.6,286047000.9,N
1560956775.4,286047000.9,N
1560956795.3,286047000.2,N
1560956815.1,286047000.1,N
1560956835.8,286047000.2,N
1560956855.7,286047004.3,Y
1560956875.5,286046999.7,P
1560956895.3,286046999.7,N
1560956915.2,286047002.2,P
1560956935.0,286046999.7,N
1560956935.9,286046999.7,N
1560956955.7,286047002.6,N
1560956975.6,286047003.8,Y
1560956995.4,286047004.0,P
1560957015.3,286047001.6,N
1560957035.1,286047001.3,N
1560957036.0,286047001.3,N
1560957055.8,286047001.6,N
1560957075.7,286047001.8,N
1560957095.5,286047002.1,N
1560957115.3,286047002.0,N
1560957135.2,286047001.4,N
1560957155.9,286047002.6,Y
1560957175.7,286046998.4,P
1560957195.6,286047000.6,N
1560957215.4,286046998.1,N
1560957235.2,286047000.7,N
1560957255.1,286047000.6,N
1560957256.0,286047000.6,N
1560957275.8,286046998.4,N
1560957295.6,286047000.5,N
1560957315.5,286046998.6,N
1560957335.3,286046998.1,N
1560957355.1,286047002.5,N
1560957375.9,286047003.5,N
1560957395.7,286047005.9,Y
1560957415.5,286047007.0,P
1560957435.4,286047008.6,N
1560957455.2,286047006.4,N
1560957475.0,286047006.5,N
1560957475.9,286047006.5,N
1560957495.8,286047006.8,N
1560957515.6,286047008.6,Y
1560957535.4,286047002.1,P
1560957555.3,286047000.5,N
1560957575.1,286046998.2,N
1560957595.8,286046996.9,N
1560957615.7,286046998.4,N
1560957635.5,286047001.2,N
1560957655.3,286047002.8,N
1560957675.2,286047001.1,N
1560957695.0,286046998.9,N
1560957695.9,286046998.9,N
1560957715.7,286046999.7,N
1560957735.6,286047001.5,N
1560957755.4,286047004.1,N
1560957775.2,286047003.1,N
1560957795.1,286047002.9,N
1560957796.0,286047002.9,N
1560957815.8,286047004.5,N
1560957835.6,286047005.8,N
1560957855.5,286047004.0,N
1560957875.3,286047001.9,N
1560957895.1,286047000.8,N
1560957915.9,286046999.5,N
1560957935.7,286046997.4,N
1560957955.5,286046994.9,N
1560957975.4,286046996.4,N
1560957995.2,286046994.4,N
1560958015.0,286046994.0,N
1560958016.0,286046994.0,N
1560958035.8,286046994.8,N
1560958055.6,286046992.3,N
1560958075.5,286046990.1,N
1560958095.3,286046990.2,N
1560958115.1,286046990.6,N
1560958135.9,286046990.3,N
1560958155.7,286046990.4,N
1560958175.5,286046992.8,N
1560958195.4,286046993.1,N
1560958215.2,286046992.5,N
1560958235.0,286046992.3,N
1560958235.9,286046992.3,N
1560958255.8,286046994.8,N
1560958275.6,286046992.0,N
1560958295.4,286046990.3,N
1560958315.3,286046994.8,N
1560958335.1,286046992.1,N
1560958336.0,286046992.1,N
1560958355.8,286046991.8,N
1560958375.7,286046993.6,N
1560958395.5,286046996.0,N
1560958415.3,286046996.2,N
1560958435.2,286046994.3,N
1560958455.9,286046991.7,Y
1560958475.7,286046999.0,P
1560958495.6,286046999.5,N
1560958515.4,286046997.0,N
1560958535.2,286046997.6,N
1560958555.1,286046998.0,N
1560958556.0,286046998.0,N
1560958575.8,286046997.6,N
1560958595.6,286046994.9,N
1560958615.5,286046999.6,N
1560958635.3,286047000.7,N
1560958655.1,286047000.0,N
1560958675.9,286046998.1,N
1560958695.7,286047000.9,N
1560958715.5,286047002.3,N
1560958735.4,286047002.5,N
1560958755.2,286047004.2,N
1560958775.0,286047005.8,N
1560958775.9,286047005.8,N
1560958795.8,286047007.3,N
1560958815.6,286047009.2,N
1560958835.4,286047012.1,Y
1560958855.3,286047009.4,P
1560958875.1,286047008.1,N
1560958895.8,286047007.0,N
1560958915.7,286047007.7,N
1560958935.5,286047010.4,Y
1560958955.3,286047001.5,P
1560958975.2,286047002.6,N
1560958995.0,286047002.0,N
1560958995.9,286047002.0,N
1560959015.7,286047004.0,N
1560959035.6,286047004.1,N
1560959055.4,286047003.7,N
1560959075.2,286047004.4,N
1560959095.1,286046999.9,N
1560959096.0,286046999.9,N
1560959115.8,286047001.9,N
1560959135.7,286047000.2,N
1560959155.5,286046998.7,N
1560959175.3,286046997.5,N
1560959195.2,286046994.9,N
1560959215.9,286047000.6,N
1560959235.7,286047000.9,N
1560959255.6,286047001.1,N
1560959275.4,286047000.4,N
1560959295.2,286047000.7,N
1560959315.1,286046999.1,N
1560959316.0,286046999.1,N
1560959335.8,286046995.3,N
1560959355.6,286046995.6,N
1560959375.5,286046997.8,N
1560959395.3,286046996.3,N
1560959415.1,286046995.6,N
1560959435.9,286046996.1,N
1560959455.7,286046996.4,N
1560959475.5,286046996.4,N
1560959495.4,286046993.8,N
1560959515.2,286046993.5,N
1560959535.0,286046995.2,N
1560959535.9,286046995.2,N
1560959555.8,286046995.4,N
1560959575.6,286046994.1,N
1560959595.4,286046993.6,N
1560959615.3,286046993.9,N
1560959635.1,286046991.9,Y
1560959636.0,286046991.9,P
1560959655.8,286046998.0,N
1560959675.7,286046997.6,N
1560959695.5,286046999.2,N
1560959715.3,286046999.8,N
1560959735.2,286047002.6,N
1560959755.0,286047003.4,N
1560959755.9,286047003.4,N
1560959775.7,286047003.0,N
1560959795.6,286047008.3,N
1560959815.4,286047008.0,N
1560959835.2,286047008.9,N
1560959855.1,286047006.4,N
1560959856.0,286047006.4,N
1560959875.8,286047004.7,N
1560959895.6,286047005.9,N
1560959915.5,286047004.3,N
1560959935.3,286047000.1,N
1560959955.1,286046999.0,N
1560959975.9,286047000.9,N
1560959995.7,286046998.1,N
